TimeEST,TemperatureF,Dew PointF,Humidity,Sea Level PressureIn,VisibilityMPH,Wind Direction,Wind SpeedMPH,Gust SpeedMPH,PrecipitationIn,Events,Conditions,WindDirDegrees,DateUTC
12:53 AM,33.1,27.0,78,30.04,10.0,SW,3.5,-,N/A,,Overcast,230,2014-02-23 05:53:00
1:53 AM,33.1,26.1,75,30.05,10.0,Variable,4.6,-,N/A,,Overcast,0,2014-02-23 06:53:00
2:53 AM,32.0,26.1,79,30.04,10.0,WSW,3.5,-,N/A,,Mostly Cloudy,240,2014-02-23 07:53:00
3:53 AM,30.9,21.9,69,30.04,10.0,Calm,Calm,-,N/A,,Scattered Clouds,0,2014-02-23 08:53:00
4:53 AM,28.9,17.1,61,30.06,10.0,Variable,3.5,-,N/A,,Clear,0,2014-02-23 09:53:00
5:53 AM,27.0,15.1,61,30.08,10.0,WNW,3.5,-,N/A,,Clear,290,2014-02-23 10:53:00
6:53 AM,26.1,16.0,66,30.11,10.0,Calm,Calm,-,N/A,,Overcast,0,2014-02-23 11:53:00
7:53 AM,26.1,16.0,66,30.12,10.0,Variable,3.5,-,N/A,,Mostly Cloudy,0,2014-02-23 12:53:00
8:53 AM,27.0,17.1,66,30.14,10.0,Variable,4.6,-,N/A,,Overcast,0,2014-02-23 13:53:00
9:53 AM,27.0,17.1,66,30.15,10.0,Variable,6.9,-,N/A,,Mostly Cloudy,0,2014-02-23 14:53:00
10:53 AM,28.0,16.0,61,30.14,10.0,West,6.9,-,N/A,,Partly Cloudy,260,2014-02-23 15:53:00
11:53 AM,28.9,16.0,58,30.14,10.0,Variable,6.9,-,N/A,,Clear,0,2014-02-23 16:53:00
12:53 PM,30.0,15.1,54,30.13,10.0,Variable,6.9,-,N/A,,Clear,0,2014-02-23 17:53:00
1:53 PM,30.0,14.0,51,30.12,10.0,Variable,6.9,16.1,N/A,,Clear,0,2014-02-23 18:53:00
2:53 PM,30.0,12.9,49,30.12,10.0,West,9.2,-,N/A,,Clear,280,2014-02-23 19:53:00
3:53 PM,30.0,12.9,49,30.12,10.0,WNW,8.1,-,N/A,,Clear,290,2014-02-23 20:53:00
4:53 PM,30.0,12.9,49,30.13,10.0,Variable,6.9,-,N/A,,Clear,0,2014-02-23 21:53:00
5:53 PM,28.0,10.9,49,30.14,10.0,West,5.8,-,N/A,,Clear,280,2014-02-23 22:53:00
6:53 PM,26.1,10.9,53,30.15,10.0,Variable,4.6,-,N/A,,Clear,0,2014-02-23 23:53:00
7:53 PM,25.0,12.0,58,30.16,10.0,WSW,6.9,-,N/A,,Clear,250,2014-02-24 00:53:00
8:53 PM,24.1,10.9,57,30.16,10.0,WSW,6.9,-,N/A,,Clear,250,2014-02-24 01:53:00
9:53 PM,21.9,12.0,66,30.16,10.0,WSW,5.8,-,N/A,,Clear,240,2014-02-24 02:53:00
10:53 PM,21.9,12.9,68,30.15,10.0,WSW,6.9,-,N/A,,Clear,240,2014-02-24 03:53:00
11:53 PM,21.9,12.9,68,30.15,10.0,WSW,8.1,-,N/A,,Clear,250,2014-02-24 04:53:00